When you browse on this site, cookies collect data to enhance your experience and personalize the content and advertising you see.
Visit our Privacy Policy to learn more. By continuing to use the site, you agree to this use of cookies and data.
  • In Switzerland
  • List of Countries
  • For 7 days
  • Water Temperature
  • Satellite Maps
  • Weather Map
  • Weather Widgets
  • user-avatar
    Login

    Hourly Weather Sevan

    Today, 25 June, Tuesday

    Time Temperature Precipitation Wind Pressure Humidity
    00:00 +20°C° 0.1 mm 3 mps 643 mmHg 67%
    01:00 +19°C° 0 mm 2 mps 643 mmHg 68%
    02:00 +19°C° 0 mm 2 mps 643 mmHg 69%
    03:00 +19°C° 0 mm 3 mps 643 mmHg 70%
    04:00 +20°C° 0 mm 3 mps 643 mmHg 69%
    05:00 +20°C° 0 mm 2 mps 643 mmHg 69%
    06:00 +21°C° 0 mm 2 mps 644 mmHg 69%
    07:00 +24°C° 0.1 mm 2 mps 644 mmHg 64%
    08:00 +25°C° 0.1 mm 1 mps 645 mmHg 59%
    09:00 +27°C° 0 mm 1 mps 645 mmHg 53%
    10:00 +28°C° 0.1 mm 2 mps 645 mmHg 50%
    11:00 +29°C° 0.1 mm 2 mps 645 mmHg 47%
    12:00 +31°C° 0.1 mm 2 mps 646 mmHg 43%
    13:00 +31°C° 0.3 mm 2 mps 645 mmHg 43%
    14:00 +31°C° 0.3 mm 2 mps 645 mmHg 43%
    15:00 +31°C° 0 mm 3 mps 645 mmHg 43%
    16:00 +30°C° 0.2 mm 3 mps 645 mmHg 47%
    17:00 +29°C° 0.2 mm 4 mps 644 mmHg 52%
    18:00 +28°C° 0.2 mm 5 mps 644 mmHg 57%
    19:00 +26°C° 0 mm 4 mps 644 mmHg 58%
    20:00 +23°C° 0 mm 4 mps 644 mmHg 60%
    21:00 +22°C° 0 mm 4 mps 644 mmHg 62%
    22:00 +21°C° 0 mm 4 mps 644 mmHg 62%
    23:00 +21°C° 0 mm 3 mps 644 mmHg 61%

    Tomorrow, 26 June, Wednesday

    Time Temperature Precipitation Wind Pressure Humidity
    00:00 +20°C° 0 mm 3 mps 644 mmHg 61%
    01:00 +20°C° 0 mm 3 mps 644 mmHg 61%
    02:00 +20°C° 0 mm 2 mps 644 mmHg 61%
    03:00 +19°C° 0 mm 2 mps 643 mmHg 61%
    04:00 +20°C° 0 mm 2 mps 644 mmHg 62%
    05:00 +20°C° 0 mm 2 mps 644 mmHg 62%
    06:00 +21°C° 0 mm 2 mps 644 mmHg 62%
    07:00 +24°C° 0 mm 2 mps 645 mmHg 57%
    08:00 +25°C° 0 mm 1 mps 645 mmHg 53%
    09:00 +27°C° 0 mm 1 mps 646 mmHg 48%
    10:00 +28°C° 0.1 mm 1 mps 646 mmHg 46%
    11:00 +29°C° 0.1 mm 1 mps 646 mmHg 43%
    12:00 +30°C° 0.1 mm 1 mps 646 mmHg 41%
    13:00 +31°C° 0.1 mm 2 mps 645 mmHg 40%
    14:00 +31°C° 0.1 mm 2 mps 645 mmHg 39%
    15:00 +31°C° 0.1 mm 2 mps 645 mmHg 38%
    16:00 +30°C° 0.2 mm 2 mps 644 mmHg 44%
    17:00 +29°C° 0.2 mm 3 mps 644 mmHg 49%
    18:00 +28°C° 0.2 mm 3 mps 643 mmHg 55%
    19:00 +26°C° 0.2 mm 3 mps 643 mmHg 58%
    20:00 +24°C° 0.2 mm 3 mps 643 mmHg 62%
    21:00 +21°C° 0.2 mm 3 mps 643 mmHg 65%
    22:00 +21°C° 0.3 mm 3 mps 643 mmHg 66%
    23:00 +20°C° 0.3 mm 3 mps 642 mmHg 67%

    Day after tomorrow, 27 June, Thursday

    Time Temperature Precipitation Wind Pressure Humidity
    00:00 +20°C° 0.3 mm 2 mps 642 mmHg 68%
    01:00 +19°C° 0.1 mm 2 mps 642 mmHg 69%
    02:00 +19°C° 0.1 mm 2 mps 642 mmHg 70%
    03:00 +19°C° 0.1 mm 2 mps 642 mmHg 72%
    04:00 +19°C° 0.1 mm 2 mps 642 mmHg 71%
    05:00 +19°C° 0.1 mm 2 mps 642 mmHg 70%
    06:00 +20°C° 0.1 mm 2 mps 642 mmHg 70%
    07:00 +21°C° 0.1 mm 2 mps 642 mmHg 65%
    08:00 +24°C° 0.1 mm 1 mps 643 mmHg 60%
    09:00 +26°C° 0.1 mm 1 mps 643 mmHg 55%
    10:00 +27°C° 0.5 mm 1 mps 643 mmHg 53%
    11:00 +28°C° 0.5 mm 2 mps 643 mmHg 50%
    12:00 +29°C° 0.5 mm 2 mps 642 mmHg 47%
    13:00 +29°C° 0.5 mm 2 mps 642 mmHg 47%
    14:00 +29°C° 0.5 mm 2 mps 642 mmHg 47%
    15:00 +29°C° 0.5 mm 3 mps 642 mmHg 48%
    16:00 +28°C° 0.4 mm 3 mps 641 mmHg 52%
    17:00 +27°C° 0.4 mm 4 mps 641 mmHg 56%
    18:00 +26°C° 0.4 mm 4 mps 640 mmHg 60%
    19:00 +23°C° 0.5 mm 4 mps 640 mmHg 64%
    20:00 +22°C° 0.5 mm 3 mps 640 mmHg 68%
    21:00 +20°C° 0.5 mm 3 mps 640 mmHg 72%
    22:00 +19°C° 0.1 mm 3 mps 639 mmHg 72%
    23:00 +19°C° 0.1 mm 2 mps 639 mmHg 72%

    28 June, Friday

    Time Temperature Precipitation Wind Pressure Humidity
    00:00 +19°C° 0.1 mm 2 mps 639 mmHg 73%
    01:00 +19°C° 0 mm 2 mps 639 mmHg 73%
    02:00 +18°C° 0 mm 2 mps 638 mmHg 73%
    03:00 +18°C° 0 mm 2 mps 638 mmHg 74%
    04:00 +18°C° 0 mm 2 mps 638 mmHg 74%
    05:00 +19°C° 0 mm 2 mps 638 mmHg 74%
    06:00 +19°C° 0 mm 2 mps 638 mmHg 74%
    07:00 +20°C° 0.3 mm 2 mps 638 mmHg 70%
    08:00 +23°C° 0.3 mm 2 mps 638 mmHg 65%
    09:00 +24°C° 0.3 mm 2 mps 638 mmHg 61%
    10:00 +25°C° 0.7 mm 2 mps 638 mmHg 57%
    11:00 +26°C° 0.7 mm 2 mps 638 mmHg 54%
    12:00 +27°C° 0.7 mm 2 mps 638 mmHg 50%
    13:00 +28°C° 0.7 mm 2 mps 638 mmHg 50%
    14:00 +28°C° 0.7 mm 2 mps 637 mmHg 49%
    15:00 +28°C° 0.7 mm 2 mps 637 mmHg 49%
    16:00 +26°C° 1.8 mm 3 mps 637 mmHg 56%
    17:00 +23°C° 1.8 mm 4 mps 636 mmHg 64%
    18:00 +21°C° 1.8 mm 5 mps 636 mmHg 72%
    19:00 +20°C° 1.2 mm 4 mps 636 mmHg 72%
    20:00 +19°C° 1.2 mm 3 mps 636 mmHg 72%
    21:00 +18°C° 1.2 mm 2 mps 636 mmHg 72%
    22:00 +18°C° 0 mm 2 mps 636 mmHg 71%
    23:00 +19°C° 0 mm 1 mps 636 mmHg 71%

    29 June, Saturday

    Time Temperature Precipitation Wind Pressure Humidity
    00:00 +19°C° 0 mm 1 mps 636 mmHg 70%
    01:00 +19°C° 0.1 mm 1 mps 636 mmHg 71%
    02:00 +19°C° 0.1 mm 1 mps 636 mmHg 72%
    03:00 +18°C° 0.1 mm 1 mps 635 mmHg 72%
    04:00 +19°C° 0 mm 1 mps 635 mmHg 72%
    05:00 +19°C° 0 mm 1 mps 636 mmHg 71%
    06:00 +20°C° 0 mm 1 mps 636 mmHg 70%
    07:00 +21°C° 0.2 mm 1 mps 636 mmHg 66%
    08:00 +22°C° 0.2 mm 1 mps 636 mmHg 62%
    09:00 +24°C° 0.2 mm 2 mps 636 mmHg 58%
    10:00 +25°C° 0.8 mm 2 mps 636 mmHg 55%
    11:00 +26°C° 0.8 mm 2 mps 637 mmHg 52%
    12:00 +27°C° 0.8 mm 2 mps 637 mmHg 49%
    13:00 +27°C° 0.6 mm 2 mps 637 mmHg 47%
    14:00 +28°C° 0.6 mm 2 mps 636 mmHg 44%
    15:00 +29°C° 0.6 mm 2 mps 636 mmHg 42%
    16:00 +26°C° 1.4 mm 2 mps 636 mmHg 55%
    17:00 +22°C° 1.4 mm 3 mps 635 mmHg 68%
    18:00 +19°C° 1.4 mm 3 mps 634 mmHg 81%
    19:00 +19°C° 0.8 mm 2 mps 635 mmHg 81%
    20:00 +18°C° 0.8 mm 2 mps 636 mmHg 80%
    21:00 +19°C° 0.8 mm 1 mps 636 mmHg 80%
    22:00 +18°C° 0.4 mm 1 mps 636 mmHg 81%
    23:00 +18°C° 0.4 mm 1 mps 636 mmHg 81%

    30 June, Sunday

    Time Temperature Precipitation Wind Pressure Humidity
    00:00 +16°C° 0.4 mm 1 mps 636 mmHg 82%
    01:00 +16°C° 0.2 mm 1 mps 636 mmHg 82%
    02:00 +16°C° 0.2 mm 1 mps 636 mmHg 82%
    03:00 +16°C° 0.2 mm 1 mps 636 mmHg 82%
    04:00 +16°C° 0.2 mm 1 mps 636 mmHg 83%
    05:00 +16°C° 0.2 mm 1 mps 636 mmHg 83%
    06:00 +16°C° 0.2 mm 1 mps 636 mmHg 83%
    07:00 +19°C° 0.3 mm 1 mps 636 mmHg 79%
    08:00 +20°C° 0.3 mm 1 mps 637 mmHg 75%
    09:00 +21°C° 0.3 mm 1 mps 637 mmHg 71%
    10:00 +21°C° 0.7 mm 2 mps 637 mmHg 66%
    11:00 +23°C° 0.7 mm 2 mps 637 mmHg 61%
    12:00 +25°C° 0.7 mm 2 mps 637 mmHg 57%
    13:00 +25°C° 1.3 mm 2 mps 637 mmHg 55%
    14:00 +25°C° 1.3 mm 2 mps 637 mmHg 53%
    15:00 +26°C° 1.3 mm 2 mps 637 mmHg 51%
    16:00 +24°C° 1.7 mm 2 mps 637 mmHg 58%
    17:00 +22°C° 1.7 mm 3 mps 636 mmHg 64%
    18:00 +20°C° 1.7 mm 3 mps 636 mmHg 71%
    19:00 +19°C° 1.4 mm 3 mps 636 mmHg 75%
    20:00 +17°C° 1.4 mm 3 mps 636 mmHg 80%
    21:00 +16°C° 1.4 mm 3 mps 636 mmHg 85%
    22:00 +14°C° 0.6 mm 3 mps 636 mmHg 85%
    23:00 +15°C° 0.6 mm 2 mps 636 mmHg 85%
    Show more